Weather in Xichang

China     27°53′48″N   102°14′45″E
temp.,
°C
wind,
m/s
gust,
m/s
humid.,
%
clouds,
%
prec.,
mm/h
press.,
hPa
HPBL,
m
10 may, mon
mon1023:00+14ne12743 0.3 100519
02:00+13ne118126 0.5 100512
05:00+12ene018417 0.0 100519
08:00+14sw117412 0.0 1006309
11:00+20s2451100 0.1 10041190
14:00+25ssw573171 0.1 9992708
17:00+26sse59277 0.0 9952635
20:00+19ese224832 0.0 99724
11 may, tue
tue1123:00+17ne125349 0.0 100119
02:00+14ne116516 0.0 100317
05:00+13nne11789 0.0 100520
08:00+15s116717 0.0 1006269
11:00+21ssw24464 0.2 10051277
14:00+26s352988 0.3 9993039
17:00+25s463191 0.1 9982497
20:00+18nne466291 0.6 1003214
12 may, wed
wed1223:00+14nne358452 0.7 1008110
02:00+13nne1186100 1.4 100727
05:00+13ne1186100 0.0 100711
08:00+15nne017669 0.0 1008270
11:00+21ssw2352100 0.1 10061152
14:00+26s2633100 0.1 9992628
17:00+24ssw473496 0.0 9981663
20:00+20se114528 0.0 99913
13 may, thu
thu1323:00+17se115794 0.0 100222
02:00+17ene1160100 0.1 100231
05:00+16s1267100 0.0 100348
08:00+17s2262100 0.1 1004329
11:00+22ssw464433 0.4 10011793
14:00+24ssw673870 0.6 9982195
17:00+25ssw583355 0.0 9962491
20:00+21ssw11465 0.0 99824
14 may, fri
fri1423:00+16ene115918 0.0 100114
02:00+14e01650 0.0 100111
05:00+13se117190 0.0 100214
08:00+16s12581 0.0 1003321
11:00+22ssw354116 0.0 10011586
14:00+23sw563782 0.0 9981861
17:00+26ssw583188 0.0 9952570
20:00+21e214481 0.0 99726